Location: El Gallo
(32.4380°N, 116.9347°W)
Time: 19:51:27
(UTC+00:00)

Skynet4D Del rocket - Pass Details

Date: 01 October 2022
Orbit: 763 x 1290 km, 26.9° (Epoch: 01 December)

Event Time Altitude Azimuth Distance (km) Brightness Sun altitude
Exits shadow 13:08:49 - 255° (WSW) 2,628 5.6 -7.8°
Reaches altitude 10° 13:09:13 10° 254° (WSW) 2,481 5.5 -7.7°
Maximum altitude 13:14:48 49° 181° (S) 1,023 4.2 -6.5°
Drops below altitude 10° 13:19:59 10° 107° (ESE) 2,297 7.5 -5.5°
Sets 13:22:27 0° 102° (ESE) 3,210 8.9 -4.9°
